Change the Weather History Date:

Thursday, July 28, 2011

  Actual Average Record
Temperature  
Mean Temperature 84 °F -  
Max Temperature 91 °F 88 °F 93 °F (2003)
Min Temperature 78 °F 79 °F 78 °F (1998)
Cooling Degree Days 20    
Growing Degree Days 34 (Base 50)    
Moisture  
Dew Point 68 °F    
Average Humidity 61    
Maximum Humidity 74    
Minimum Humidity 41    
Precipitation  
Precipitation 0.00 in - - ()
Sea Level Pressure  
Sea Level Pressure 29.89 in    
Wind  
Wind Speed 8 mph ()    
Max Wind Speed 22 mph    
Max Gust Speed -    
Visibility 6.1 miles    
Events Rain , Thunderstorm    
Averages and records for this station are not official NWS values.
T = Trace of Precipitation, MM = Missing Value Source: Averaged Metar Reports

Daily Weather History Graph

Daily Weather History Graph

Search for Another Location

Airport or City:

Trip Planner

Search our weather history database for the weather conditions in past years. The results will help you decide how hot, cold, wet, or windy it might be!

Date:

Astronomy

Jul. 28, 2011 Rise Set
Actual Time 5:44 AM EST 6:42 PM EST
Civil Twilight 5:21 AM EST 7:06 PM EST
Nautical Twilight 4:53 AM EST 7:33 PM EST
Astronomical Twilight 4:25 AM EST 8:01 PM EST
Moon 3:31 AM EST (7/28) 5:00 PM EST (7/28)
Length of Visible Light 13h 45m
Length of Day
12h 58m
Waning Crescent, 5% of the Moon is Illuminated
Jul 28
Waning Crescent
Jul 30
New
Aug 6
First Quarter
Aug 13
Full
Aug 21
Last Quarter

Hourly Weather History & Observations

Time (EST) Temp. Heat Index Dew Point Humidity Pressure Visibility Wind Dir Wind Speed Gust Speed Precip Events Conditions
12:00 AM 80.6 °F 83.2 °F 68.0 °F 65% 29.92 in 6.2 mi NW 6.9 mph - N/A   Partly Cloudy
1:00 AM 80 °F - 67 °F 56% 29.91 in 12 mi North 4.6 mph - -   Haze
1:00 AM 80.6 °F 83.2 °F 68.0 °F 65% 29.89 in 6.2 mi North 4.6 mph - N/A   Partly Cloudy
2:00 AM 78.8 °F - 66.2 °F 65% 29.89 in 6.2 mi North 6.9 mph - N/A   Partly Cloudy
3:00 AM 78.8 °F - 66.2 °F 65% 29.89 in 6.2 mi NW 3.5 mph - N/A   Partly Cloudy
4:00 AM 78 °F - 66 °F 59% 29.89 in 4 mi West 4.6 mph - -   Scattered Clouds
4:00 AM 78.8 °F - 66.2 °F 65% 29.89 in 6.2 mi West 4.6 mph - N/A   Partly Cloudy
5:00 AM 78.8 °F - 66.2 °F 65% 29.89 in 6.2 mi NW 3.5 mph - N/A   Partly Cloudy
6:00 AM 78.8 °F - 68.0 °F 69% 29.89 in 6.2 mi NW 6.9 mph - N/A   Mostly Cloudy
7:00 AM 79 °F - 67 °F 58% 29.92 in 4 mi NNW 4.6 mph - -   Haze
7:00 AM 78.8 °F - 66.2 °F 65% 29.92 in 6.2 mi NNW 4.6 mph - N/A   Mostly Cloudy
8:00 AM 80.6 °F 82.7 °F 66.2 °F 61% 29.92 in 6.2 mi North 4.6 mph - N/A   Mostly Cloudy
9:00 AM 82.4 °F 85.4 °F 68.0 °F 62% 29.92 in 6.2 mi North 3.5 mph - N/A   Mostly Cloudy
9:39 AM 86.0 °F 90.4 °F 69.8 °F 58% 29.89 in 6.2 mi ESE 15.0 mph - N/A   Mostly Cloudy
10:00 AM 85 °F - 69 °F 50% 29.91 in 4 mi ESE 17.3 mph - -   Haze
10:00 AM 86.0 °F 90.4 °F 69.8 °F 58% 29.89 in 6.2 mi ESE 17.3 mph - N/A   Mostly Cloudy
11:00 AM 86.0 °F 89.4 °F 68.0 °F 55% 29.89 in 6.2 mi ESE 19.6 mph - N/A   Mostly Cloudy
12:00 PM 86.0 °F 91.8 °F 71.6 °F 62% 29.89 in 6.2 mi SE 18.4 mph - N/A   Mostly Cloudy
1:00 PM 88 °F - 67 °F 41% 29.88 in 4 mi ESE 20.7 mph - -   Haze
1:00 PM 87.8 °F 91.4 °F 68.0 °F 52% 29.86 in 6.2 mi ESE 20.7 mph - N/A   Mostly Cloudy
2:00 PM 86.0 °F 91.8 °F 71.6 °F 62% 29.86 in 6.2 mi SE 21.9 mph - N/A   Mostly Cloudy
3:00 PM 86.0 °F 91.8 °F 71.6 °F 62% 29.86 in 6.2 mi SE 20.7 mph - N/A   Mostly Cloudy
4:00 PM 85 °F - 70 °F 52% 29.86 in 4 mi ESE 18.4 mph - -   Mostly Cloudy
4:00 PM 84.2 °F 88.4 °F 69.8 °F 62% 29.86 in 6.2 mi ESE 18.4 mph - N/A   Mostly Cloudy
5:00 PM 84.2 °F 87.3 °F 68.0 °F 58% 29.86 in 6.2 mi ESE 15.0 mph - N/A Thunderstorm Thunderstorm
5:16 PM 84.2 °F 87.3 °F 68.0 °F 58% 29.89 in 6.2 mi East 6.9 mph - N/A   Partly Cloudy
6:00 PM 82.4 °F 86.3 °F 69.8 °F 66% 29.89 in 6.2 mi NW 8.1 mph - N/A Rain Light Rain Showers
7:00 PM 82 °F - 67 °F 53% 29.91 in 4 mi NW 5.8 mph - -   Haze
7:00 PM 82.4 °F 85.4 °F 68.0 °F 62% 29.89 in 6.2 mi NW 5.8 mph - N/A   Partly Cloudy
8:00 PM 80.6 °F 82.7 °F 66.2 °F 61% 29.92 in 6.2 mi NW 3.5 mph - N/A   Partly Cloudy
9:00 PM 80.6 °F 83.2 °F 68.0 °F 65% 29.92 in 6.2 mi SE 2.3 mph - N/A Thunderstorm Partly Cloudy
10:00 PM 80 °F - 70 °F 63% 29.96 in 12 mi West 3.5 mph - -   Scattered Clouds
10:00 PM 80.6 °F 83.9 °F 69.8 °F 70% 29.95 in 6.2 mi West 3.5 mph - N/A Thunderstorm Partly Cloudy
11:00 PM 79 °F - 69 °F 63% 29.70 in 4 mi West 3.5 mph - -   Partly Cloudy
11:00 PM 80.6 °F 84.6 °F 71.6 °F 74% 29.95 in 6.2 mi NW 8.1 mph - N/A Thunderstorm Partly Cloudy